{"data":{"norad_id":59416,"epoch":"2026-09-21T16:35:34.012896Z","epoch_age_seconds":62200,"freshness":"FRESH","line1":"1 59416U 24064U   26264.69136589  .00000457  00000+0  26121-4 0  9999","line2":"2 59416  43.0019  29.0817 0001334 258.6531 101.4171 15.27580274139203","mean_motion":15.27580274,"eccentricity":0.0001334,"inclination_deg":43.0019,"raan_deg":29.0817,"arg_perigee_deg":258.6531,"mean_anomaly_deg":101.4171,"bstar":2.6121e-5,"rev_number":13920,"period_min":94.266731805153,"perigee_km":482.13299346944,"apogee_km":483.96355770097,"semimajor_km":6861.1852755852,"source":"CELESTRAK","updated_at":"2026-09-22T09:00:48.917749Z"}}